This is the latest recevied weather packets stored in our database for station/object SP2WPY-13. If no packets are shown the sender has not sent any weather packets the latest 10 day(s).
| Time | Temp. | Humidity | Pressure | Rain* | Wind** | Luminosity | Snow |
|---|---|---|---|---|---|---|---|
| 1787730038 | 21.11° C | 76% | 1027.6 hPa | - | - | - | - |
| 1787729719 | 21.11° C | 73% | 1027.6 hPa | - | - | - | - |
| 1787729445 | 22.22° C | 77% | 1027.5 hPa | - | - | - | - |
| 1787729125 | 21.67° C | 77% | 1027.4 hPa | - | - | - | - |
| 1787728805 | 21.67° C | 77% | 1027.5 hPa | - | - | - | - |
| 1787728531 | 20.56° C | 89% | 1027.4 hPa | - | - | - | - |
| 1787728212 | 19.44° C | 90% | 1027.4 hPa | - | - | - | - |
| 1787727938 | 19.44° C | 89% | 1027.4 hPa | - | - | - | - |
| 1787727618 | 19.44° C | 89% | 1027.4 hPa | - | - | - | - |
| 1787727344 | 20° C | 89% | 1027.4 hPa | - | - | - | - |
| 1787727025 | 20° C | 91% | 1027.3 hPa | - | - | - | - |
| 1787726705 | 20.56° C | 95% | 1027.3 hPa | - | - | - | - |
| 1787726431 | 20° C | 100% | 1027.3 hPa | - | - | - | - |
| 1787726111 | 20° C | 100% | 1027.2 hPa | - | - | - | - |
| 1787725837 | 19.44° C | 100% | 1027.2 hPa | - | - | - | - |
| 1787725517 | 19.44° C | 100% | 1027.3 hPa | - | - | - | - |
| 1787725243 | 18.89° C | 100% | 1027.2 hPa | - | - | - | - |
| 1787724924 | 19.44° C | 100% | 1027.2 hPa | - | - | - | - |
| 1787724604 | 19.44° C | 100% | 1027.2 hPa | - | - | - | - |
| 1787724331 | 18.33° C | 100% | 1027.1 hPa | - | - | - | - |
| 1787724011 | 16.67° C | 100% | 1027.3 hPa | - | - | - | - |
| 1787723737 | 16.67° C | 100% | 1027.2 hPa | - | - | - | - |
| 1787723417 | 16.11° C | 100% | 1027.2 hPa | - | - | - | - |
| 1787723144 | 16.11° C | 100% | 1027.2 hPa | - | - | - | - |
| 1787722824 | 15.56° C | 100% | 1027.1 hPa | - | - | - | - |
* Rain since midnight (hover to see other rain measurements)
** Current wind speed in m/s (hover to see current wind gust speed)